Location: Newark
(48.6461°N, 4.3644°W)
Time: 23:44:34
(UTC+00:00)

S-56A Canister/Altair - Pass Details

Date: 25 January 2020
Orbit: 633 x 2499 km, 38.9° (Epoch: 23 February)

Event Time Altitude Azimuth Distance (km) Brightness Sun altitude
Rises 18:36:05 0° 197° (SSW) 4,441 11.8 -15.1°
Reaches altitude 10° 18:43:07 10° 157° (SSE) 2,868 10.3 -16.3°
Maximum altitude 18:43:41 10° 153° (SSE) 2,813 10.2 -16.4°
Drops below altitude 10° 18:44:15 10° 148° (SSE) 2,775 10.2 -16.5°
Enters shadow 18:45:59 - 132° (SE) 2,772 10.0 -16.7°
Sets 18:49:42 0° 104° (ESE) 3,305 - -17.3°
